Date String (YYYY-MM-DD hh:mm:ss) UTC,Instrument flags,Ambient pressure (hPa),Sample flow (lpm),Bypass flow (lpm),Sample temperature (°C),Ambient temperature (°C),ASC tube jacket temperature (°C),LED temperature (°C),Box temperature (°C),Sample RH (%),Span deviation,Mass concentration (μg/m³),Mass concentration (μg/m³),Mass concentration (μg/m³)
DateTimeUTC,F1_M11,P_M11,Q1_M11,Q2_M11,T1_M11,T2_M11,T3_M11,T4_M11,T5_M11,U1_M11,ZSPAN_M11,X0_M11,X2_M11,X1_M11
2021-10-23 16:00:00,,0819.3,4.99,0.00,27.6,26.9,00.0,36.7,29.5,09.4,0000.0,0010.74,0003.74,0002.37
2021-10-23 16:01:00,,0819.3,4.99,0.00,27.6,26.9,00.0,36.7,29.5,09.4,0000.0,0010.42,0003.73,0002.33
2021-10-23 16:02:00,,0819.3,5.00,0.00,27.6,26.9,00.0,36.7,29.5,09.5,0000.0,0010.38,0003.72,0002.28
2021-10-23 16:03:00,,0819.4,4.99,0.00,27.6,26.9,00.0,36.7,29.4,09.5,0000.0,0010.61,0003.68,0002.26
2021-10-23 16:04:00,,0819.4,5.00,0.00,27.6,26.9,00.0,36.7,29.4,09.6,0000.0,0010.96,0003.69,0002.25
2021-10-23 16:05:00,,0819.4,5.01,0.00,27.6,26.9,00.0,36.7,29.4,09.6,0000.0,0010.61,0003.62,0002.25
2021-10-23 16:06:00,,0819.3,5.00,0.00,27.7,27.0,00.0,36.7,29.5,09.6,0000.0,0010.67,0003.61,0002.25
2021-10-23 16:07:00,,0819.2,4.99,0.00,27.7,27.0,00.0,36.7,29.5,09.6,0000.0,0010.75,0003.62,0002.24
2021-10-23 16:08:00,,0819.2,5.00,0.00,27.7,27.0,00.0,36.7,29.5,09.6,0000.0,0010.88,0003.70,0002.25
2021-10-23 16:09:00,,0819.2,5.00,0.00,27.7,27.0,00.0,36.7,29.5,09.6,0000.0,0010.74,0003.69,0002.24
2021-10-23 16:10:00,,0819.3,5.01,0.00,27.7,27.0,00.0,36.7,29.5,09.6,0000.0,0011.68,0003.73,0002.22
2021-10-23 16:11:00,,0819.3,4.99,0.00,27.7,27.1,00.0,36.7,29.6,09.6,0000.0,0011.33,0003.74,0002.21
2021-10-23 16:12:00,,0819.3,5.00,0.00,27.7,27.1,00.0,36.7,29.6,09.5,0000.0,0011.24,0003.70,0002.20
2021-10-23 16:13:00,,0819.3,5.00,0.00,27.8,27.1,00.0,36.7,29.6,09.6,0000.0,0011.25,0003.70,0002.19
2021-10-23 16:14:00,,0819.3,5.01,0.00,27.8,27.1,00.0,36.8,29.6,09.7,0000.0,0011.04,0003.71,0002.19
2021-10-23 16:15:00,,0819.3,5.00,0.00,27.8,27.1,00.0,36.8,29.6,09.6,0000.0,0010.39,0003.66,0002.17
2021-10-23 16:16:00,,0819.3,5.01,0.00,27.8,27.1,00.0,36.8,29.6,09.7,0000.0,0010.58,0003.66,0002.15
2021-10-23 16:17:00,,0819.3,4.99,0.00,27.8,27.1,00.0,36.8,29.6,09.6,0000.0,0011.17,0003.66,0002.13
2021-10-23 16:18:00,,0819.3,5.00,0.00,27.8,27.1,00.0,36.8,29.6,09.4,0000.0,0011.02,0003.64,0002.13
2021-10-23 16:19:00,,0819.2,5.01,0.00,27.8,27.1,00.0,36.8,29.6,09.5,0000.0,0010.83,0003.54,0002.12
2021-10-23 16:20:00,,0819.2,4.99,0.00,27.8,27.2,00.0,36.8,29.7,09.3,0000.0,0011.62,0003.54,0002.11
2021-10-23 16:21:00,,0819.2,5.00,0.00,27.8,27.2,00.0,36.8,29.6,09.2,0000.0,0011.16,0003.49,0002.10
2021-10-23 16:22:00,,0819.2,5.01,0.00,27.9,27.2,00.0,36.8,29.7,09.3,0000.0,0010.84,0003.43,0002.08
2021-10-23 16:23:00,,0819.2,5.00,0.00,27.9,27.2,00.0,36.8,29.7,09.2,0000.0,0011.28,0003.40,0002.08
2021-10-23 16:24:00,,0819.3,5.01,0.00,27.9,27.2,00.0,36.9,29.7,09.3,0000.0,0011.02,0003.37,0002.07
2021-10-23 16:25:00,,0819.3,4.99,0.00,27.9,27.2,00.0,36.9,29.7,09.4,0000.0,0011.22,0003.36,0002.06
2021-10-23 16:26:00,,0819.3,5.00,0.00,27.9,27.3,00.0,36.9,29.7,09.5,0000.0,0011.51,0003.36,0002.06
2021-10-23 16:27:00,,0819.3,5.00,0.00,27.9,27.3,00.0,36.9,29.8,09.8,0000.0,0012.44,0003.36,0002.07
2021-10-23 16:28:00,,0819.2,4.99,0.00,27.9,27.3,00.0,36.9,29.8,09.8,0000.0,0012.60,0003.39,0002.09
2021-10-23 16:29:00,,0819.2,5.00,0.00,27.9,27.3,00.0,36.9,29.7,09.7,0000.0,0013.08,0003.39,0002.06
2021-10-23 16:30:00,,0819.2,4.99,0.00,27.9,27.3,00.0,36.9,29.8,09.9,0000.0,0013.82,0003.40,0002.05
2021-10-23 16:31:00,,0819.2,5.01,0.00,28.0,27.3,00.0,36.9,29.8,10.6,0000.0,0013.14,0003.42,0002.08
2021-10-23 16:32:00,,0819.2,5.00,0.00,28.0,27.3,00.0,36.9,29.8,10.9,0000.0,0013.33,0003.48,0002.11
2021-10-23 16:33:00,,0819.2,4.99,0.00,28.0,27.3,00.0,36.9,29.8,10.8,0000.0,0013.65,0003.57,0002.14
2021-10-23 16:34:00,,0819.2,5.01,0.00,28.0,27.3,00.0,37.0,29.8,10.7,0000.0,0013.29,0003.62,0002.16
2021-10-23 16:35:00,,0819.2,5.01,0.00,28.0,27.4,00.0,37.0,29.9,10.7,0000.0,0013.69,0003.66,0002.19
2021-10-23 16:36:00,,0819.2,4.99,0.00,28.0,27.4,00.0,37.0,29.9,10.7,0000.0,0013.60,0003.70,0002.21
2021-10-23 16:37:00,,0819.2,5.00,0.00,28.1,27.4,00.0,37.0,29.9,10.5,0000.0,0013.75,0003.75,0002.23
2021-10-23 16:38:00,,0819.3,4.99,0.00,28.1,27.4,00.0,37.0,30.0,10.2,0000.0,0012.60,0003.74,0002.23
2021-10-23 16:39:00,,0819.3,5.01,0.00,28.1,27.4,00.0,37.0,30.0,09.7,0000.0,0012.02,0003.73,0002.22
2021-10-23 16:40:00,,0819.3,5.00,0.00,28.1,27.4,00.0,37.1,30.0,09.3,0000.0,0011.11,0003.74,0002.21
2021-10-23 16:41:00,,0819.3,4.99,0.00,28.1,27.4,00.0,37.1,30.0,09.5,0000.0,0010.50,0003.74,0002.19
2021-10-23 16:42:00,,0819.3,5.00,0.00,28.1,27.4,00.0,37.1,30.0,10.1,0000.0,0010.96,0003.69,0002.16
2021-10-23 16:43:00,,0819.2,5.00,0.00,28.1,27.4,00.0,37.1,30.0,10.2,0000.0,0010.58,0003.64,0002.14
2021-10-23 16:44:00,,0819.2,4.99,0.00,28.1,27.4,00.0,37.1,29.9,10.0,0000.0,0010.22,0003.59,0002.13
2021-10-23 16:45:00,,0819.2,5.00,0.00,28.1,27.4,00.0,37.1,30.0,10.5,0000.0,0011.01,0003.57,0002.14
2021-10-23 16:46:00,,0819.3,4.99,0.00,28.1,27.4,00.0,37.1,30.0,11.0,0000.0,0011.90,0003.61,0002.16
2021-10-23 16:47:00,,0819.3,5.00,0.00,28.1,27.4,00.0,37.1,29.9,11.3,0000.0,0012.66,0003.62,0002.18
2021-10-23 16:48:00,,0819.2,5.00,0.00,28.1,27.5,00.0,37.1,29.9,11.4,0000.0,0012.55,0003.62,0002.20
2021-10-23 16:49:00,,0819.3,5.01,0.00,28.2,27.5,00.0,37.1,30.0,10.9,0000.0,0013.15,0003.70,0002.23
2021-10-23 16:50:00,,0819.3,4.99,0.00,28.2,27.5,00.0,37.2,30.0,10.5,0000.0,0013.74,0003.70,0002.25
2021-10-23 16:51:00,,0819.3,5.00,0.00,28.2,27.5,00.0,37.2,30.0,10.3,0000.0,0013.97,0003.71,0002.28
2021-10-23 16:52:00,,0819.3,5.01,0.00,28.2,27.5,00.0,37.2,30.0,10.4,0000.0,0014.36,0003.77,0002.31
2021-10-23 16:53:00,,0819.3,5.00,0.00,28.2,27.6,00.0,37.2,30.0,10.1,0000.0,0014.21,0003.80,0002.31
2021-10-23 16:54:00,,0819.3,4.99,0.00,28.2,27.6,00.0,37.2,30.1,09.1,0000.0,0013.94,0003.82,0002.30
2021-10-23 16:55:00,,0819.3,5.00,0.00,28.3,27.6,00.0,37.2,30.1,08.7,0000.0,0013.83,0003.77,0002.26
2021-10-23 16:56:00,,0819.3,5.00,0.00,28.3,27.6,00.0,37.2,30.2,08.8,0000.0,0013.15,0003.76,0002.22
2021-10-23 16:57:00,,0819.2,5.01,0.00,28.3,27.6,00.0,37.2,30.1,08.8,0000.0,0012.23,0003.71,0002.16
2021-10-23 16:58:00,,0819.3,5.00,0.00,28.3,27.6,00.0,37.3,30.1,08.8,0000.0,0011.35,0003.62,0002.07
2021-10-23 16:59:00,,0819.3,5.01,0.00,28.3,27.6,00.0,37.3,30.1,08.9,0000.0,0010.76,0003.54,0002.00
